Time,TemperatureF,DewpointF,PressureIn,WindDirection,WindDirectionDegrees,WindSpeedMPH,WindSpeedGustMPH,Humidity,HourlyPrecipIn,Conditions,Clouds,dailyrainin,SoftwareType,DateUTC
2013-02-22 00:05:00,29.6,-99.9,29.21,WSW,247,5.0,-999.0,-999,-99.99,,,-99.99,,2013-02-22 00:05:00,
2013-02-22 00:11:00,29.5,-99.9,29.20,WSW,247,5.0,-999.0,-999,-99.99,,,-99.99,,2013-02-22 00:11:00,
2013-02-22 00:17:00,29.6,-99.9,29.21,SW,225,8.0,-999.0,-999,-99.99,,,-99.99,,2013-02-22 00:17:00,
2013-02-22 00:23:00,29.6,-99.9,29.20,WSW,247,7.0,-999.0,-999,-99.99,,,-99.99,,2013-02-22 00:23:00,
2013-02-22 00:29:00,29.5,-99.9,29.20,South,180,5.0,-999.0,-999,-99.99,,,-99.99,,2013-02-22 00:29:00,
2013-02-22 00:35:00,29.5,-99.9,29.20,WSW,247,6.0,-999.0,-999,-99.99,,,-99.99,,2013-02-22 00:35:00,
2013-02-22 00:41:00,29.4,-99.9,29.20,SW,225,7.0,-999.0,-999,-99.99,,,-99.99,,2013-02-22 00:41:00,
2013-02-22 00:47:00,29.3,-99.9,29.20,West,270,5.0,-999.0,-999,-99.99,,,-99.99,,2013-02-22 00:47:00,
2013-02-22 00:53:00,29.3,-99.9,29.20,South,180,6.0,-999.0,-999,-99.99,,,-99.99,,2013-02-22 00:53:00,
2013-02-22 00:59:00,29.3,-99.9,29.20,SW,225,7.0,-999.0,-999,-99.99,,,-99.99,,2013-02-22 00:59:00,
2013-02-22 01:05:00,29.3,-99.9,29.20,SW,225,7.0,-999.0,-999,-99.99,,,-99.99,,2013-02-22 01:05:00,
2013-02-22 01:11:00,29.3,-99.9,29.20,SW,225,7.0,-999.0,-999,-99.99,,,-99.99,,2013-02-22 01:11:00,
2013-02-22 01:17:00,29.2,-99.9,29.20,SW,225,6.0,-999.0,-999,-99.99,,,-99.99,,2013-02-22 01:17:00,
2013-02-22 01:23:00,29.2,-99.9,29.20,West,270,5.0,-999.0,-999,-99.99,,,-99.99,,2013-02-22 01:23:00,
2013-02-22 01:29:00,29.2,-99.9,29.20,WSW,247,9.0,-999.0,-999,-99.99,,,-99.99,,2013-02-22 01:29:00,
2013-02-22 01:35:00,29.3,-99.9,29.21,WSW,247,8.0,-999.0,-999,-99.99,,,-99.99,,2013-02-22 01:35:00,
2013-02-22 01:41:00,29.3,-99.9,29.20,WSW,247,7.0,-999.0,-999,-99.99,,,-99.99,,2013-02-22 01:41:00,
2013-02-22 01:47:00,29.3,-99.9,29.20,SSW,202,5.0,-999.0,-999,-99.99,,,-99.99,,2013-02-22 01:47:00,
2013-02-22 01:53:00,29.2,-99.9,29.20,South,180,7.0,-999.0,-999,-99.99,,,-99.99,,2013-02-22 01:53:00,
2013-02-22 01:59:00,29.3,-99.9,29.20,SW,225,8.0,-999.0,-999,-99.99,,,-99.99,,2013-02-22 01:59:00,
2013-02-22 02:05:00,29.3,-99.9,29.20,SSW,202,7.0,-999.0,-999,-99.99,,,-99.99,,2013-02-22 02:05:00,
2013-02-22 02:11:00,29.2,-99.9,29.20,South,180,6.0,-999.0,-999,-99.99,,,-99.99,,2013-02-22 02:11:00,
2013-02-22 02:17:00,29.2,-99.9,29.20,WSW,247,6.0,-999.0,-999,-99.99,,,-99.99,,2013-02-22 02:17:00,
2013-02-22 02:23:00,29.2,-99.9,29.20,SW,225,10.0,-999.0,-999,-99.99,,,-99.99,,2013-02-22 02:23:00,
2013-02-22 02:29:00,29.2,-99.9,29.20,SW,225,4.0,-999.0,-999,-99.99,,,-99.99,,2013-02-22 02:29:00,
2013-02-22 02:35:00,29.1,-99.9,29.20,SW,225,8.0,-999.0,-999,-99.99,,,-99.99,,2013-02-22 02:35:00,
2013-02-22 02:41:00,29.1,-99.9,29.20,WSW,247,9.0,-999.0,-999,-99.99,,,-99.99,,2013-02-22 02:41:00,
2013-02-22 02:47:00,29.1,-99.9,29.20,ESE,112,9.0,-999.0,-999,-99.99,,,-99.99,,2013-02-22 02:47:00,
2013-02-22 02:53:00,29.0,-99.9,29.19,SSW,202,8.0,-999.0,-999,-99.99,,,-99.99,,2013-02-22 02:53:00,
2013-02-22 02:59:00,28.9,-99.9,29.19,SW,225,5.0,-999.0,-999,-99.99,,,-99.99,,2013-02-22 02:59:00,
2013-02-22 03:05:00,28.9,-99.9,29.19,SW,225,4.0,-999.0,-999,-99.99,,,-99.99,,2013-02-22 03:05:00,
2013-02-22 03:11:00,28.7,-99.9,29.19,SSW,202,4.0,-999.0,-999,-99.99,,,-99.99,,2013-02-22 03:11:00,
2013-02-22 03:17:00,28.7,-99.9,29.18,SSW,202,9.0,-999.0,-999,-99.99,,,-99.99,,2013-02-22 03:17:00,
2013-02-22 03:23:00,28.7,-99.9,29.18,SSW,202,5.0,-999.0,-999,-99.99,,,-99.99,,2013-02-22 03:23:00,
2013-02-22 03:29:00,28.7,-99.9,29.18,West,270,7.0,-999.0,-999,-99.99,,,-99.99,,2013-02-22 03:29:00,
2013-02-22 03:35:00,28.7,-99.9,29.18,SW,225,8.0,-999.0,-999,-99.99,,,-99.99,,2013-02-22 03:35:00,
2013-02-22 03:41:00,28.9,-99.9,29.18,SW,225,11.0,-999.0,-999,-99.99,,,-99.99,,2013-02-22 03:41:00,
2013-02-22 03:47:00,29.0,-99.9,29.18,West,270,8.0,-999.0,-999,-99.99,,,-99.99,,2013-02-22 03:47:00,
2013-02-22 03:53:00,29.1,-99.9,29.18,SSE,157,9.0,-999.0,-999,-99.99,,,-99.99,,2013-02-22 03:53:00,
2013-02-22 03:59:00,29.1,-99.9,29.18,SSE,157,9.0,-999.0,-999,-99.99,,,-99.99,,2013-02-22 03:59:00,
2013-02-22 04:05:00,29.1,-99.9,29.18,WSW,247,8.0,-999.0,-999,-99.99,,,-99.99,,2013-02-22 04:05:00,
2013-02-22 04:11:00,29.1,-99.9,29.17,South,180,6.0,-999.0,-999,-99.99,,,-99.99,,2013-02-22 04:11:00,
2013-02-22 04:17:00,29.1,-99.9,29.17,SE,135,6.0,-999.0,-999,-99.99,,,-99.99,,2013-02-22 04:17:00,
2013-02-22 04:23:00,29.1,-99.9,29.17,South,180,7.0,-999.0,-999,-99.99,,,-99.99,,2013-02-22 04:23:00,
2013-02-22 04:29:00,29.0,-99.9,29.18,South,180,6.0,-999.0,-999,-99.99,,,-99.99,,2013-02-22 04:29:00,
2013-02-22 04:35:00,29.1,-99.9,29.18,WSW,247,7.0,-999.0,-999,-99.99,,,-99.99,,2013-02-22 04:35:00,
2013-02-22 04:41:00,29.1,-99.9,29.18,SSW,202,6.0,-999.0,-999,-99.99,,,-99.99,,2013-02-22 04:41:00,
2013-02-22 04:47:00,29.1,-99.9,29.18,South,180,5.0,-999.0,-999,-99.99,,,-99.99,,2013-02-22 04:47:00,
2013-02-22 04:53:00,29.1,-99.9,29.18,SE,135,7.0,-999.0,-999,-99.99,,,-99.99,,2013-02-22 04:53:00,
2013-02-22 04:59:00,29.0,-99.9,29.18,South,180,4.0,-999.0,-999,-99.99,,,-99.99,,2013-02-22 04:59:00,
2013-02-22 05:01:00,29.0,-99.9,29.18,SE,135,5.0,-999.0,-999,-99.99,,,-99.99,,2013-02-22 05:01:00,
2013-02-22 05:07:00,29.0,-99.9,29.18,SSE,157,6.0,-999.0,-999,-99.99,,,-99.99,,2013-02-22 05:07:00,
2013-02-22 05:13:00,29.0,-99.9,29.18,WSW,247,7.0,-999.0,-999,-99.99,,,-99.99,,2013-02-22 05:13:00,
2013-02-22 05:19:00,29.1,-99.9,29.18,SW,225,8.0,-999.0,-999,-99.99,,,-99.99,,2013-02-22 05:19:00,
2013-02-22 05:25:00,29.1,-99.9,29.18,SW,225,7.0,-999.0,-999,-99.99,,,-99.99,,2013-02-22 05:25:00,
2013-02-22 05:31:00,29.1,-99.9,29.18,WSW,247,9.0,-999.0,-999,-99.99,,,-99.99,,2013-02-22 05:31:00,
2013-02-22 05:37:00,29.1,-99.9,29.18,South,180,6.0,-999.0,-999,-99.99,,,-99.99,,2013-02-22 05:37:00,
2013-02-22 05:43:00,29.1,-99.9,29.18,South,180,6.0,-999.0,-999,-99.99,,,-99.99,,2013-02-22 05:43:00,
2013-02-22 05:49:00,29.1,-99.9,29.18,SSE,157,8.0,-999.0,-999,-99.99,,,-99.99,,2013-02-22 05:49:00,
2013-02-22 05:55:00,29.1,-99.9,29.19,WSW,247,7.0,-999.0,-999,-99.99,,,-99.99,,2013-02-22 05:55:00,
2013-02-22 06:01:00,29.1,-99.9,29.19,SE,135,7.0,-999.0,-999,-99.99,,,-99.99,,2013-02-22 06:01:00,
2013-02-22 06:07:00,29.1,-99.9,29.19,SSW,202,6.0,-999.0,-999,-99.99,,,-99.99,,2013-02-22 06:07:00,
2013-02-22 06:13:00,29.1,-99.9,29.19,South,180,7.0,-999.0,-999,-99.99,,,-99.99,,2013-02-22 06:13:00,
2013-02-22 06:19:00,29.1,-99.9,29.19,SE,135,5.0,-999.0,-999,-99.99,,,-99.99,,2013-02-22 06:19:00,
2013-02-22 06:25:00,29.0,-99.9,29.19,SW,225,6.0,-999.0,-999,-99.99,,,-99.99,,2013-02-22 06:25:00,
2013-02-22 06:31:00,29.0,-99.9,29.19,SSE,157,4.0,-999.0,-999,-99.99,,,-99.99,,2013-02-22 06:31:00,
2013-02-22 06:37:00,28.9,-99.9,29.19,SE,135,6.0,-999.0,-999,-99.99,,,-99.99,,2013-02-22 06:37:00,
2013-02-22 06:43:00,28.7,-99.9,29.19,SW,225,7.0,-999.0,-999,-99.99,,,-99.99,,2013-02-22 06:43:00,
2013-02-22 06:49:00,28.6,-99.9,29.19,South,180,7.0,-999.0,-999,-99.99,,,-99.99,,2013-02-22 06:49:00,
2013-02-22 06:55:00,28.6,-99.9,29.19,SW,225,6.0,-999.0,-999,-99.99,,,-99.99,,2013-02-22 06:55:00,
2013-02-22 07:01:00,28.6,-99.9,29.19,SSE,157,6.0,-999.0,-999,-99.99,,,-99.99,,2013-02-22 07:01:00,
2013-02-22 07:07:00,28.6,-99.9,29.19,West,270,7.0,-999.0,-999,-99.99,,,-99.99,,2013-02-22 07:07:00,
2013-02-22 07:13:00,28.7,-99.9,29.20,WSW,247,7.0,-999.0,-999,-99.99,,,-99.99,,2013-02-22 07:13:00,
2013-02-22 07:19:00,28.7,-99.9,29.20,SSW,202,4.0,-999.0,-999,-99.99,,,-99.99,,2013-02-22 07:19:00,
2013-02-22 07:25:00,28.7,-99.9,29.20,NNW,337,4.0,-999.0,-999,-99.99,,,-99.99,,2013-02-22 07:25:00,
2013-02-22 07:31:00,28.7,-99.9,29.20,WSW,247,5.0,-999.0,-999,-99.99,,,-99.99,,2013-02-22 07:31:00,
2013-02-22 07:37:00,28.7,-99.9,29.20,WSW,247,7.0,-999.0,-999,-99.99,,,-99.99,,2013-02-22 07:37:00,
2013-02-22 07:43:00,28.9,-99.9,29.20,WSW,247,7.0,-999.0,-999,-99.99,,,-99.99,,2013-02-22 07:43:00,
2013-02-22 07:49:00,29.0,-99.9,29.20,WSW,247,8.0,-999.0,-999,-99.99,,,-99.99,,2013-02-22 07:49:00,
2013-02-22 07:55:00,29.0,-99.9,29.20,WSW,247,9.0,-999.0,-999,-99.99,,,-99.99,,2013-02-22 07:55:00,
2013-02-22 08:01:00,29.1,-99.9,29.20,WSW,247,10.0,-999.0,-999,-99.99,,,-99.99,,2013-02-22 08:01:00,
2013-02-22 08:07:00,29.2,-99.9,29.20,SSW,202,7.0,-999.0,-999,-99.99,,,-99.99,,2013-02-22 08:07:00,
2013-02-22 08:13:00,29.3,-99.9,29.21,South,180,3.0,-999.0,-999,-99.99,,,-99.99,,2013-02-22 08:13:00,
2013-02-22 08:19:00,29.4,-99.9,29.21,ESE,112,4.0,-999.0,-999,-99.99,,,-99.99,,2013-02-22 08:19:00,
2013-02-22 08:25:00,29.3,-99.9,29.21,SSW,202,4.0,-999.0,-999,-99.99,,,-99.99,,2013-02-22 08:25:00,
2013-02-22 08:31:00,29.4,-99.9,29.21,SSW,202,3.0,-999.0,-999,-99.99,,,-99.99,,2013-02-22 08:31:00,
2013-02-22 08:37:00,29.5,-99.9,29.21,South,180,7.0,-999.0,-999,-99.99,,,-99.99,,2013-02-22 08:37:00,
2013-02-22 08:43:00,29.6,-99.9,29.21,SSE,157,10.0,-999.0,-999,-99.99,,,-99.99,,2013-02-22 08:43:00,
2013-02-22 08:49:00,29.8,-99.9,29.21,SW,225,8.0,-999.0,-999,-99.99,,,-99.99,,2013-02-22 08:49:00,
2013-02-22 08:55:00,29.9,-99.9,29.21,SSE,157,7.0,-999.0,-999,-99.99,,,-99.99,,2013-02-22 08:55:00,
2013-02-22 09:01:00,30.1,-99.9,29.21,WSW,247,6.0,-999.0,-999,-99.99,,,-99.99,,2013-02-22 09:01:00,
2013-02-22 09:07:00,30.2,-99.9,29.21,SSE,157,5.0,-999.0,-999,-99.99,,,-99.99,,2013-02-22 09:07:00,
2013-02-22 09:13:00,30.4,-99.9,29.21,South,180,5.0,-999.0,-999,-99.99,,,-99.99,,2013-02-22 09:13:00,
2013-02-22 09:19:00,30.6,-99.9,29.21,SSE,157,6.0,-999.0,-999,-99.99,,,-99.99,,2013-02-22 09:19:00,
2013-02-22 09:25:00,30.8,-99.9,29.21,SE,135,5.0,-999.0,-999,-99.99,,,-99.99,,2013-02-22 09:25:00,
2013-02-22 09:31:00,30.6,-99.9,29.22,SSE,157,4.0,-999.0,-999,-99.99,,,-99.99,,2013-02-22 09:31:00,
2013-02-22 09:37:00,30.9,-99.9,29.22,SSW,202,4.0,-999.0,-999,-99.99,,,-99.99,,2013-02-22 09:37:00,
2013-02-22 09:43:00,31.0,-99.9,29.21,SSE,157,3.0,-999.0,-999,-99.99,,,-99.99,,2013-02-22 09:43:00,
2013-02-22 09:49:00,31.1,-99.9,29.22,SW,225,4.0,-999.0,-999,-99.99,,,-99.99,,2013-02-22 09:49:00,
2013-02-22 09:55:00,31.2,-99.9,29.22,SSE,157,4.0,-999.0,-999,-99.99,,,-99.99,,2013-02-22 09:55:00,
2013-02-22 10:01:00,31.4,-99.9,29.22,SW,225,3.0,-999.0,-999,-99.99,,,-99.99,,2013-02-22 10:01:00,
2013-02-22 10:07:00,31.5,-99.9,29.22,South,180,2.0,-999.0,-999,-99.99,,,-99.99,,2013-02-22 10:07:00,
2013-02-22 10:13:00,31.7,-99.9,29.22,SE,135,3.0,-999.0,-999,-99.99,,,-99.99,,2013-02-22 10:13:00,
2013-02-22 10:19:00,31.8,-99.9,29.22,SW,225,2.0,-999.0,-999,-99.99,,,-99.99,,2013-02-22 10:19:00,
2013-02-22 10:25:00,31.9,-99.9,29.22,SSW,202,4.0,-999.0,-999,-99.99,,,-99.99,,2013-02-22 10:25:00,
2013-02-22 10:31:00,31.9,-99.9,29.22,SE,135,6.0,-999.0,-999,-99.99,,,-99.99,,2013-02-22 10:31:00,
2013-02-22 10:37:00,31.9,-99.9,29.22,WSW,247,5.0,-999.0,-999,-99.99,,,-99.99,,2013-02-22 10:37:00,
2013-02-22 10:43:00,31.9,-99.9,29.22,East,90,4.0,-999.0,-999,-99.99,,,-99.99,,2013-02-22 10:43:00,
2013-02-22 10:49:00,31.9,-99.9,29.22,ESE,112,4.0,-999.0,-999,-99.99,,,-99.99,,2013-02-22 10:49:00,
2013-02-22 10:55:00,32.0,-99.9,29.22,SE,135,3.0,-999.0,-999,-99.99,,,-99.99,,2013-02-22 10:55:00,
2013-02-22 11:01:00,32.2,-99.9,29.22,ESE,112,4.0,-999.0,-999,-99.99,,,-99.99,,2013-02-22 11:01:00,
2013-02-22 11:07:00,32.3,-99.9,29.22,ESE,112,1.0,-999.0,-999,-99.99,,,-99.99,,2013-02-22 11:07:00,
2013-02-22 11:13:00,32.6,-99.9,29.22,SE,135,3.0,-999.0,-999,-99.99,,,-99.99,,2013-02-22 11:13:00,
2013-02-22 11:19:00,32.7,-99.9,29.22,ENE,67,3.0,-999.0,-999,-99.99,,,-99.99,,2013-02-22 11:19:00,
2013-02-22 11:25:00,32.7,-99.9,29.22,ESE,112,3.0,-999.0,-999,-99.99,,,-99.99,,2013-02-22 11:25:00,
2013-02-22 11:31:00,32.8,-99.9,29.22,ESE,112,3.0,-999.0,-999,-99.99,,,-99.99,,2013-02-22 11:31:00,
2013-02-22 11:37:00,32.8,-99.9,29.22,NE,45,2.0,-999.0,-999,-99.99,,,-99.99,,2013-02-22 11:37:00,
2013-02-22 11:43:00,33.0,-99.9,29.22,SSE,157,3.0,-999.0,-999,-99.99,,,-99.99,,2013-02-22 11:43:00,
2013-02-22 11:49:00,33.0,-99.9,29.21,East,90,2.0,-999.0,-999,-99.99,,,-99.99,,2013-02-22 11:49:00,
2013-02-22 11:55:00,33.0,-99.9,29.21,SW,225,4.0,-999.0,-999,-99.99,,,-99.99,,2013-02-22 11:55:00,
2013-02-22 12:01:00,33.1,-99.9,29.21,SE,135,3.0,-999.0,-999,-99.99,,,-99.99,,2013-02-22 12:01:00,
2013-02-22 12:07:00,33.1,-99.9,29.21,SW,225,4.0,-999.0,-999,-99.99,,,-99.99,,2013-02-22 12:07:00,
2013-02-22 12:13:00,33.0,-99.9,29.21,ESE,112,4.0,-999.0,-999,-99.99,,,-99.99,,2013-02-22 12:13:00,
2013-02-22 12:19:00,33.0,-99.9,29.21,SE,135,3.0,-999.0,-999,-99.99,,,-99.99,,2013-02-22 12:19:00,
2013-02-22 12:25:00,33.1,-99.9,29.20,SW,225,6.0,-999.0,-999,-99.99,,,-99.99,,2013-02-22 12:25:00,
2013-02-22 12:31:00,33.1,-99.9,29.20,ESE,112,5.0,-999.0,-999,-99.99,,,-99.99,,2013-02-22 12:31:00,
2013-02-22 12:37:00,33.2,-99.9,29.20,SE,135,4.0,-999.0,-999,-99.99,,,-99.99,,2013-02-22 12:37:00,
2013-02-22 12:43:00,33.2,-99.9,29.21,WSW,247,3.0,-999.0,-999,-99.99,,,-99.99,,2013-02-22 12:43:00,
2013-02-22 12:49:00,33.1,-99.9,29.20,SW,225,4.0,-999.0,-999,-99.99,,,-99.99,,2013-02-22 12:49:00,
2013-02-22 12:55:00,33.2,-99.9,29.20,SE,135,2.0,-999.0,-999,-99.99,,,-99.99,,2013-02-22 12:55:00,
2013-02-22 13:01:00,33.3,-99.9,29.20,South,180,7.0,-999.0,-999,-99.99,,,-99.99,,2013-02-22 13:01:00,
2013-02-22 13:07:00,33.1,-99.9,29.20,ESE,112,5.0,-999.0,-999,-99.99,,,-99.99,,2013-02-22 13:07:00,
2013-02-22 13:13:00,33.0,-99.9,29.20,ENE,67,4.0,-999.0,-999,-99.99,,,-99.99,,2013-02-22 13:13:00,
2013-02-22 13:19:00,33.1,-99.9,29.20,East,90,4.0,-999.0,-999,-99.99,,,-99.99,,2013-02-22 13:19:00,
2013-02-22 13:25:00,33.2,-99.9,29.20,SE,135,4.0,-999.0,-999,-99.99,,,-99.99,,2013-02-22 13:25:00,
2013-02-22 13:31:00,33.3,-99.9,29.20,ESE,112,6.0,-999.0,-999,-99.99,,,-99.99,,2013-02-22 13:31:00,
2013-02-22 13:37:00,33.3,-99.9,29.20,East,90,1.0,-999.0,-999,-99.99,,,-99.99,,2013-02-22 13:37:00,
2013-02-22 13:43:00,33.3,-99.9,29.20,South,180,5.0,-999.0,-999,-99.99,,,-99.99,,2013-02-22 13:43:00,
2013-02-22 13:49:00,33.5,-99.9,29.19,WSW,247,4.0,-999.0,-999,-99.99,,,-99.99,,2013-02-22 13:49:00,
2013-02-22 13:55:00,33.3,-99.9,29.19,WSW,247,4.0,-999.0,-999,-99.99,,,-99.99,,2013-02-22 13:55:00,
2013-02-22 14:01:00,33.6,-99.9,29.19,ENE,67,3.0,-999.0,-999,-99.99,,,-99.99,,2013-02-22 14:01:00,
2013-02-22 14:07:00,33.6,-99.9,29.19,West,270,4.0,-999.0,-999,-99.99,,,-99.99,,2013-02-22 14:07:00,
2013-02-22 14:13:00,33.6,-99.9,29.19,SE,135,4.0,-999.0,-999,-99.99,,,-99.99,,2013-02-22 14:13:00,
2013-02-22 14:19:00,33.5,-99.9,29.19,SW,225,6.0,-999.0,-999,-99.99,,,-99.99,,2013-02-22 14:19:00,
2013-02-22 14:25:00,33.2,-99.9,29.19,WSW,247,7.0,-999.0,-999,-99.99,,,-99.99,,2013-02-22 14:25:00,
2013-02-22 14:31:00,33.0,-99.9,29.19,ESE,112,5.0,-999.0,-999,-99.99,,,-99.99,,2013-02-22 14:31:00,
2013-02-22 14:37:00,33.0,-99.9,29.19,SSW,202,3.0,-999.0,-999,-99.99,,,-99.99,,2013-02-22 14:37:00,
2013-02-22 14:43:00,33.0,-99.9,29.19,SW,225,3.0,-999.0,-999,-99.99,,,-99.99,,2013-02-22 14:43:00,
2013-02-22 14:49:00,33.0,-99.9,29.19,ESE,112,5.0,-999.0,-999,-99.99,,,-99.99,,2013-02-22 14:49:00,
2013-02-22 14:55:00,32.9,-99.9,29.19,WSW,247,4.0,-999.0,-999,-99.99,,,-99.99,,2013-02-22 14:55:00,
2013-02-22 15:01:00,32.9,-99.9,29.19,SW,225,5.0,-999.0,-999,-99.99,,,-99.99,,2013-02-22 15:01:00,
2013-02-22 15:07:00,32.8,-99.9,29.18,SSW,202,7.0,-999.0,-999,-99.99,,,-99.99,,2013-02-22 15:07:00,
2013-02-22 15:13:00,32.8,-99.9,29.18,SE,135,4.0,-999.0,-999,-99.99,,,-99.99,,2013-02-22 15:13:00,
2013-02-22 15:19:00,32.7,-99.9,29.18,SSE,157,6.0,-999.0,-999,-99.99,,,-99.99,,2013-02-22 15:19:00,
2013-02-22 15:25:00,32.7,-99.9,29.18,West,270,5.0,-999.0,-999,-99.99,,,-99.99,,2013-02-22 15:25:00,
2013-02-22 15:31:00,32.7,-99.9,29.18,SE,135,5.0,-999.0,-999,-99.99,,,-99.99,,2013-02-22 15:31:00,
2013-02-22 15:37:00,32.6,-99.9,29.18,SE,135,4.0,-999.0,-999,-99.99,,,-99.99,,2013-02-22 15:37:00,
2013-02-22 15:43:00,32.6,-99.9,29.18,SSE,157,3.0,-999.0,-999,-99.99,,,-99.99,,2013-02-22 15:43:00,
2013-02-22 15:49:00,32.5,-99.9,29.18,South,180,4.0,-999.0,-999,-99.99,,,-99.99,,2013-02-22 15:49:00,
2013-02-22 15:55:00,32.5,-99.9,29.18,WSW,247,7.0,-999.0,-999,-99.99,,,-99.99,,2013-02-22 15:55:00,
2013-02-22 16:01:00,32.2,-99.9,29.18,WSW,247,6.0,-999.0,-999,-99.99,,,-99.99,,2013-02-22 16:01:00,
2013-02-22 16:07:00,32.2,-99.9,29.18,ESE,112,5.0,-999.0,-999,-99.99,,,-99.99,,2013-02-22 16:07:00,
2013-02-22 16:12:00,32.0,-99.9,29.18,SSW,202,4.0,-999.0,-999,-99.99,,,-99.99,,2013-02-22 16:12:00,
2013-02-22 16:19:00,32.0,-99.9,29.18,SW,225,3.0,-999.0,-999,-99.99,,,-99.99,,2013-02-22 16:19:00,
2013-02-22 16:24:00,31.9,-99.9,29.18,ENE,67,4.0,-999.0,-999,-99.99,,,-99.99,,2013-02-22 16:24:00,
2013-02-22 16:31:00,31.9,-99.9,29.19,NE,45,3.0,-999.0,-999,-99.99,,,-99.99,,2013-02-22 16:31:00,
2013-02-22 16:37:00,31.9,-99.9,29.19,SSW,202,4.0,-999.0,-999,-99.99,,,-99.99,,2013-02-22 16:37:00,
2013-02-22 16:43:00,31.8,-99.9,29.19,SW,225,3.0,-999.0,-999,-99.99,,,-99.99,,2013-02-22 16:43:00,
2013-02-22 16:49:00,31.7,-99.9,29.19,SW,225,4.0,-999.0,-999,-99.99,,,-99.99,,2013-02-22 16:49:00,
2013-02-22 16:55:00,31.5,-99.9,29.19,South,180,4.0,-999.0,-999,-99.99,,,-99.99,,2013-02-22 16:55:00,
2013-02-22 17:01:00,31.4,-99.9,29.19,SE,135,4.0,-999.0,-999,-99.99,,,-99.99,,2013-02-22 17:01:00,
2013-02-22 17:07:00,31.3,-99.9,29.19,SW,225,1.0,-999.0,-999,-99.99,,,-99.99,,2013-02-22 17:07:00,
2013-02-22 17:13:00,31.2,-99.9,29.19,SW,225,1.0,-999.0,-999,-99.99,,,-99.99,,2013-02-22 17:13:00,
2013-02-22 17:19:00,31.2,-99.9,29.19,SE,135,2.0,-999.0,-999,-99.99,,,-99.99,,2013-02-22 17:19:00,
2013-02-22 17:25:00,31.2,-99.9,29.19,SSW,202,5.0,-999.0,-999,-99.99,,,-99.99,,2013-02-22 17:25:00,
2013-02-22 17:31:00,31.2,-99.9,29.19,South,180,3.0,-999.0,-999,-99.99,,,-99.99,,2013-02-22 17:31:00,
2013-02-22 17:37:00,31.0,-99.9,29.19,ESE,112,2.0,-999.0,-999,-99.99,,,-99.99,,2013-02-22 17:37:00,
2013-02-22 17:43:00,31.1,-99.9,29.19,South,180,3.0,-999.0,-999,-99.99,,,-99.99,,2013-02-22 17:43:00,
2013-02-22 17:49:00,31.0,-99.9,29.19,SW,225,3.0,-999.0,-999,-99.99,,,-99.99,,2013-02-22 17:49:00,
2013-02-22 17:55:00,30.9,-99.9,29.20,SW,225,5.0,-999.0,-999,-99.99,,,-99.99,,2013-02-22 17:55:00,
2013-02-22 18:01:00,30.9,-99.9,29.20,WSW,247,0.0,-999.0,-999,-99.99,,,-99.99,,2013-02-22 18:01:00,
2013-02-22 18:07:00,30.9,-99.9,29.20,NNE,22,1.0,-999.0,-999,-99.99,,,-99.99,,2013-02-22 18:07:00,
2013-02-22 18:13:00,30.8,-99.9,29.20,East,90,1.0,-999.0,-999,-99.99,,,-99.99,,2013-02-22 18:13:00,
2013-02-22 18:19:00,30.8,-99.9,29.20,SSW,202,2.0,-999.0,-999,-99.99,,,-99.99,,2013-02-22 18:19:00,
2013-02-22 18:25:00,30.8,-99.9,29.20,SSW,202,1.0,-999.0,-999,-99.99,,,-99.99,,2013-02-22 18:25:00,
2013-02-22 18:31:00,30.8,-99.9,29.19,SE,135,3.0,-999.0,-999,-99.99,,,-99.99,,2013-02-22 18:31:00,
2013-02-22 18:37:00,30.6,-99.9,29.19,East,90,1.0,-999.0,-999,-99.99,,,-99.99,,2013-02-22 18:37:00,
2013-02-22 18:43:00,30.6,-99.9,29.20,South,180,3.0,-999.0,-999,-99.99,,,-99.99,,2013-02-22 18:43:00,
2013-02-22 18:49:00,30.8,-99.9,29.20,ENE,67,2.0,-999.0,-999,-99.99,,,-99.99,,2013-02-22 18:49:00,
2013-02-22 18:55:00,30.8,-99.9,29.20,East,90,5.0,-999.0,-999,-99.99,,,-99.99,,2013-02-22 18:55:00,
2013-02-22 19:01:00,30.6,-99.9,29.20,SSW,202,2.0,-999.0,-999,-99.99,,,-99.99,,2013-02-22 19:01:00,
2013-02-22 19:07:00,30.5,-99.9,29.20,SE,135,1.0,-999.0,-999,-99.99,,,-99.99,,2013-02-22 19:07:00,
2013-02-22 19:13:00,30.5,-99.9,29.20,East,90,1.0,-999.0,-999,-99.99,,,-99.99,,2013-02-22 19:13:00,
2013-02-22 19:19:00,30.5,-99.9,29.20,ESE,112,1.0,-999.0,-999,-99.99,,,-99.99,,2013-02-22 19:19:00,
2013-02-22 19:25:00,30.5,-99.9,29.20,WNW,292,1.0,-999.0,-999,-99.99,,,-99.99,,2013-02-22 19:25:00,
2013-02-22 19:31:00,30.5,-99.9,29.20,SE,135,3.0,-999.0,-999,-99.99,,,-99.99,,2013-02-22 19:31:00,
2013-02-22 19:37:00,30.6,-99.9,29.20,NE,45,2.0,-999.0,-999,-99.99,,,-99.99,,2013-02-22 19:37:00,
2013-02-22 19:43:00,30.6,-99.9,29.21,SE,135,0.0,-999.0,-999,-99.99,,,-99.99,,2013-02-22 19:43:00,
2013-02-22 19:49:00,30.5,-99.9,29.21,ESE,112,1.0,-999.0,-999,-99.99,,,-99.99,,2013-02-22 19:49:00,
2013-02-22 19:55:00,30.4,-99.9,29.21,SSW,202,2.0,-999.0,-999,-99.99,,,-99.99,,2013-02-22 19:55:00,
2013-02-22 20:01:00,30.4,-99.9,29.21,NNE,22,0.0,-999.0,-999,-99.99,,,-99.99,,2013-02-22 20:01:00,
2013-02-22 20:07:00,30.3,-99.9,29.21,ESE,112,0.0,-999.0,-999,-99.99,,,-99.99,,2013-02-22 20:07:00,
2013-02-22 20:13:00,30.3,-99.9,29.21,South,180,1.0,-999.0,-999,-99.99,,,-99.99,,2013-02-22 20:13:00,
2013-02-22 20:19:00,30.2,-99.9,29.21,North,0,3.0,-999.0,-999,-99.99,,,-99.99,,2013-02-22 20:19:00,
2013-02-22 20:25:00,30.1,-99.9,29.21,NW,315,0.0,-999.0,-999,-99.99,,,-99.99,,2013-02-22 20:25:00,
2013-02-22 20:31:00,30.0,-99.9,29.21,NNE,22,2.0,-999.0,-999,-99.99,,,-99.99,,2013-02-22 20:31:00,
2013-02-22 20:37:00,30.0,-99.9,29.21,North,0,2.0,-999.0,-999,-99.99,,,-99.99,,2013-02-22 20:37:00,
2013-02-22 20:45:00,30.0,-99.9,29.20,NE,45,1.0,-999.0,-999,-99.99,,,-99.99,,2013-02-22 20:45:00,
2013-02-22 20:51:00,30.1,-99.9,29.20,North,0,2.0,-999.0,-999,-99.99,,,-99.99,,2013-02-22 20:51:00,
2013-02-22 20:57:00,30.1,-99.9,29.20,NNE,22,3.0,-999.0,-999,-99.99,,,-99.99,,2013-02-22 20:57:00,
2013-02-22 21:03:00,30.1,-99.9,29.20,NE,45,1.0,-999.0,-999,-99.99,,,-99.99,,2013-02-22 21:03:00,
2013-02-22 21:09:00,30.1,-99.9,29.20,NNE,22,4.0,-999.0,-999,-99.99,,,-99.99,,2013-02-22 21:09:00,
2013-02-22 21:15:00,30.2,-99.9,29.20,North,0,3.0,-999.0,-999,-99.99,,,-99.99,,2013-02-22 21:15:00,
2013-02-22 21:21:00,30.2,-99.9,29.20,ENE,67,2.0,-999.0,-999,-99.99,,,-99.99,,2013-02-22 21:21:00,
2013-02-22 21:27:00,30.2,-99.9,29.20,ENE,67,4.0,-999.0,-999,-99.99,,,-99.99,,2013-02-22 21:27:00,
2013-02-22 21:33:00,30.3,-99.9,29.20,NE,45,0.0,-999.0,-999,-99.99,,,-99.99,,2013-02-22 21:33:00,
2013-02-22 21:39:00,30.3,-99.9,29.20,ENE,67,0.0,-999.0,-999,-99.99,,,-99.99,,2013-02-22 21:39:00,
2013-02-22 21:45:00,30.3,-99.9,29.20,East,90,1.0,-999.0,-999,-99.99,,,-99.99,,2013-02-22 21:45:00,
2013-02-22 21:51:00,30.3,-99.9,29.20,ENE,67,0.0,-999.0,-999,-99.99,,,-99.99,,2013-02-22 21:51:00,
2013-02-22 21:57:00,30.3,-99.9,29.20,NE,45,0.0,-999.0,-999,-99.99,,,-99.99,,2013-02-22 21:57:00,
2013-02-22 22:03:00,30.3,-99.9,29.20,NE,45,0.0,-999.0,-999,-99.99,,,-99.99,,2013-02-22 22:03:00,
2013-02-22 22:09:00,30.1,-99.9,29.20,WSW,247,0.0,-999.0,-999,-99.99,,,-99.99,,2013-02-22 22:09:00,
2013-02-22 22:15:00,30.1,-99.9,29.20,SW,225,0.0,-999.0,-999,-99.99,,,-99.99,,2013-02-22 22:15:00,
2013-02-22 22:21:00,30.1,-99.9,29.19,WNW,292,0.0,-999.0,-999,-99.99,,,-99.99,,2013-02-22 22:21:00,
2013-02-22 22:27:00,30.0,-99.9,29.19,NNE,22,2.0,-999.0,-999,-99.99,,,-99.99,,2013-02-22 22:27:00,
2013-02-22 22:33:00,30.1,-99.9,29.19,NE,45,1.0,-999.0,-999,-99.99,,,-99.99,,2013-02-22 22:33:00,
2013-02-22 22:39:00,30.1,-99.9,29.19,NNE,22,4.0,-999.0,-999,-99.99,,,-99.99,,2013-02-22 22:39:00,
2013-02-22 22:45:00,30.0,-99.9,29.19,North,0,5.0,-999.0,-999,-99.99,,,-99.99,,2013-02-22 22:45:00,
2013-02-22 22:51:00,30.1,-99.9,29.19,SE,135,2.0,-999.0,-999,-99.99,,,-99.99,,2013-02-22 22:51:00,
2013-02-22 22:57:00,30.1,-99.9,29.19,NE,45,6.0,-999.0,-999,-99.99,,,-99.99,,2013-02-22 22:57:00,
2013-02-22 23:03:00,30.0,-99.9,29.19,ENE,67,4.0,-999.0,-999,-99.99,,,-99.99,,2013-02-22 23:03:00,
2013-02-22 23:09:00,30.0,-99.9,29.19,ENE,67,3.0,-999.0,-999,-99.99,,,-99.99,,2013-02-22 23:09:00,
2013-02-22 23:15:00,30.0,-99.9,29.19,NNE,22,4.0,-999.0,-999,-99.99,,,-99.99,,2013-02-22 23:15:00,
2013-02-22 23:21:00,29.9,-99.9,29.19,NNE,22,1.0,-999.0,-999,-99.99,,,-99.99,,2013-02-22 23:21:00,
2013-02-22 23:27:00,29.8,-99.9,29.19,NE,45,6.0,-999.0,-999,-99.99,,,-99.99,,2013-02-22 23:27:00,
2013-02-22 23:33:00,29.8,-99.9,29.19,NNE,22,7.0,-999.0,-999,-99.99,,,-99.99,,2013-02-22 23:33:00,
2013-02-22 23:39:00,29.6,-99.9,29.19,ENE,67,7.0,-999.0,-999,-99.99,,,-99.99,,2013-02-22 23:39:00,
2013-02-22 23:45:00,29.6,-99.9,29.20,NNE,22,7.0,-999.0,-999,-99.99,,,-99.99,,2013-02-22 23:45:00,
2013-02-22 23:51:00,29.5,-99.9,29.20,NNE,22,10.0,-999.0,-999,-99.99,,,-99.99,,2013-02-22 23:51:00,
2013-02-22 23:57:00,29.4,-99.9,29.20,NNE,22,5.0,-999.0,-999,-99.99,,,-99.99,,2013-02-22 23:57:00,